Location: Ferchesar
(52.6477°N, 12.4298°E)
Time: 20:21:33
(UTC+01:00)

Tiros 1 - Pass Details

Date: 12 December 2021
Orbit: 629 x 664 km, 48.4° (Epoch: 18 January)

Event Time Altitude Azimuth Distance (km) Brightness Sun altitude
Rises 19:50:12 0° 273° (W) 2,927 11.6 -34.1°
Reaches altitude 10° 19:52:38 10° 266° (W) 2,022 10.5 -34.5°
Enters shadow 19:54:21 21° 253° (WSW) 1,445 9.4 -34.8°
